Scottsbluff, NE

3:29 PM MDT on September 16, 2019 (GMT -0600)
Heilig

Weather History for KBFF - July, 2019

Change the Weather History Date:

Wednesday, July 17, 2019

  Actual Average Record
Temperature  
Mean Temperature 75 °F -  
Max Temperature 88 °F 90 °F 105 °F (2003)
Min Temperature 62 °F 59 °F 47 °F (1927)
Cooling Degree Days 10    
Growing Degree Days 25 (Base 50)    
Moisture  
Dew Point 32 °F    
Average Humidity 13    
Maximum Humidity 20    
Minimum Humidity 7    
Precipitation  
Precipitation 0.00 in - - ()
Sea Level Pressure  
Sea Level Pressure 29.77 in    
Wind  
Wind Speed 9 mph (North)    
Max Wind Speed 15 mph    
Max Gust Speed 22 mph    
Visibility 10 miles    
Events      
Averages and records for this station are not official NWS values.
T = Trace of Precipitation, MM = Missing Value Source: NWS Daily Summary

Daily Weather History Graph

Daily Weather History Graph

Search for Another Location

Airport or City:

Astronomy

Jul. 17, 2019 Rise Set
Actual Time 5:34 AM MDT 8:26 PM MDT
Civil Twilight 5:01 AM MDT 8:59 PM MDT
Nautical Twilight 4:19 AM MDT 9:41 PM MDT
Astronomical Twilight 3:30 AM MDT 10:29 PM MDT
Moon 9:16 PM MDT (7/17) 6:08 AM MDT (7/17)
Length of Visible Light 15h 58m
Length of Day
14h 52m
Full, 99% of the Moon is Illuminated
Jul 17
Full
Jul 24
Last Quarter
Jul 31
New
Aug 7
First Quarter
Aug 15
Full

Hourly Weather History & Observations

Time (MDT) Temp. Dew Point Humidity Pressure Visibility Wind Dir Wind Speed Gust Speed Precip Events Conditions
12:53 AM 75.9 °F - N/A% 29.66 in 10.0 mi ESE 12.7 mph - N/A   Clear
1:53 AM 75.9 °F - N/A% 29.64 in 10.0 mi ESE 13.8 mph - N/A   Clear
2:53 AM 78.1 °F - N/A% 29.67 in 10.0 mi WNW 15.0 mph 21.9 mph N/A   Clear
3:53 AM 71.1 °F - N/A% 29.69 in 10.0 mi West 12.7 mph - N/A   Clear
4:53 AM 64.0 °F - N/A% 29.72 in 10.0 mi WSW 4.6 mph - N/A   Clear
5:53 AM 63.0 °F - N/A% 29.77 in 10.0 mi NW 9.2 mph - N/A   Clear
6:53 AM 63.0 °F - N/A% 29.80 in 10.0 mi NNW 5.8 mph - N/A   Mostly Cloudy
7:00 AM 63.0 °F - N/A% 29.93 in 10.0 mi NNW 6.9 mph - N/A   Mostly Cloudy
7:09 AM 64.0 °F - N/A% 29.94 in 10.0 mi North 8.1 mph - N/A   Overcast
7:53 AM 64.9 °F - N/A% 29.83 in 10.0 mi North 9.2 mph - N/A   Overcast
8:08 AM 64.9 °F - N/A% 29.95 in 10.0 mi WNW 8.1 mph - N/A   Overcast
8:53 AM 68.0 °F - N/A% 29.83 in 10.0 mi WNW 9.2 mph - N/A   Overcast
9:37 AM 69.1 °F - N/A% 29.96 in 10.0 mi WNW 6.9 mph - N/A   Overcast
9:53 AM 69.1 °F - N/A% 29.85 in 10.0 mi West 6.9 mph - N/A   Overcast
10:53 AM 71.1 °F - N/A% 29.84 in 10.0 mi NW 5.8 mph - N/A   Overcast
11:53 AM 75.9 °F - N/A% 29.81 in 10.0 mi Calm Calm - N/A   Mostly Cloudy
12:53 PM 77.0 °F - N/A% 29.80 in 10.0 mi Variable 3.5 mph - N/A   Mostly Cloudy
1:02 PM 78.1 °F - N/A% 29.94 in 10.0 mi Calm Calm - N/A   Scattered Clouds
1:53 PM 81.0 °F - N/A% 29.76 in 10.0 mi Calm Calm - N/A   Clear
2:53 PM 82.9 °F - N/A% 29.73 in 10.0 mi SE 6.9 mph - N/A   Clear
3:53 PM 84.9 °F - N/A% 29.71 in 10.0 mi SSE 11.5 mph - N/A   Clear
4:53 PM 87.1 °F - N/A% 29.70 in 10.0 mi SSE 8.1 mph - N/A   Clear
5:53 PM 86.0 °F - N/A% 29.68 in 10.0 mi SE 11.5 mph - N/A   Clear
6:53 PM 84.9 °F - N/A% 29.67 in 10.0 mi ESE 9.2 mph - N/A   Clear
7:53 PM 79.0 °F - N/A% 29.69 in 10.0 mi East 5.8 mph - N/A   Clear
8:53 PM 73.9 °F - N/A% 29.70 in 10.0 mi ENE 6.9 mph - N/A   Clear
9:53 PM 72.0 °F - N/A% 29.72 in 10.0 mi SE 6.9 mph - N/A   Clear
10:53 PM 71.1 °F - N/A% 29.71 in 10.0 mi ENE 6.9 mph - N/A   Clear
11:53 PM 72.0 °F - N/A% 29.70 in 10.0 mi ENE 4.6 mph - N/A   Clear